Flag for Netherlands Weather past 2 weeks in Nijmegen, Netherlands

Now
68 °F

Mild.


Feels Like: 68 °F
Forecast: 62 / 88 °F
Wind: 2 mph from South

Location: Volkel

Current Time: Aug 2, 2015 at 10:51:04 AM

Latest Report: Aug 2, 2015 at 10:25 AM


Visibility: N/A

Pressure: 30.12 "Hg

Humidity: 60%

Dew point: 54 °F

Location of NijmegenLocation

Historic Weather in Nijmegen — Graph

°F

Nijmegen temperature yesterday

Maximum temperature yesterday: 73 °F (at 3:55 PM)
Minimum temperature yesterday: 48 °F (at 6:25 AM)
Average temperature yesterday: 61 °F

Past Weeks' High & Low Weather Summary

 TemperatureHumidityPressure
High79 °F (Jul 21, 2:55 PM)100% (Jul 20, 2:25 AM)30.15 "Hg (Jul 20, 2:25 AM)
Low45 °F (Jul 31, 3:25 AM)36% (Aug 1, 3:55 PM)29.45 "Hg (Jul 25, 6:55 AM)
Average62 °F74%29.87 "Hg
* Reported Jul 18 9:25 AM — Aug 2 9:55 AM, Nijmegen, Weather by CustomWeather, © 2015

Note: Actual official high and low records may vary slightly from our data, if they occured in-between our weather recording intervals... More about our weather records

Advertising

Nijmegen weather history for previous 24 hours

 ConditionsComfort  
Time TempWeatherWind HumidityBarometerVisibility
9:55 AM
Sun, Aug 2
66 °FPassing clouds.3 mph60%30.12 "HgN/A
9:25 AM64 °FPassing clouds.3 mph64%30.12 "HgN/A
8:55 AM64 °FMild.2 mph64%30.12 "HgN/A
8:25 AM59 °FFog.1 mph77%30.12 "Hg6 mi
8:02 AM55 °FFog.No wind94%30.12 "Hg4 mi
7:55 AM55 °FFog.No wind94%30.12 "Hg5 mi
7:25 AM50 °FFog.No wind100%30.09 "Hg4 mi
7:01 AM48 °FFog.1 mph100%30.09 "Hg4 mi
6:55 AM48 °FFog.1 mph100%30.09 "Hg4 mi
6:25 AM46 °FFog.No wind100%30.09 "Hg4 mi
5:55 AM46 °FFog.No wind100%30.09 "Hg4 mi
5:25 AM48 °FFog.1 mph100%30.09 "Hg4 mi
4:55 AM48 °FFog.1 mph94%30.09 "Hg4 mi
4:25 AM48 °FFog.No wind100%30.09 "Hg6 mi
3:59 AM48 °FFog.No wind100%30.09 "Hg5 mi
3:25 AM48 °FCool.No wind100%30.09 "HgN/A
2:55 AM48 °FCool.1 mph100%30.09 "HgN/A
2:25 AM50 °FClear.1 mph94%30.09 "HgN/A
1:55 AM50 °FCool.1 mph94%30.07 "HgN/A
1:25 AM52 °FCool.No wind88%30.07 "HgN/A
12:55 AM52 °FCool.No wind94%30.07 "HgN/A
11:55 PM
Sat, Aug 1
55 °FCool.1 mph82%30.07 "HgN/A
11:25 PM57 °FClear.3 mph77%30.07 "HgN/A
10:55 PM59 °FCool.5 mph72%30.07 "HgN/A
10:25 PM59 °FCool.2 mph72%30.04 "HgN/A
9:55 PM59 °FCool.1 mph72%30.04 "HgN/A
9:25 PM63 °FMild.2 mph64%30.04 "HgN/A
8:55 PM68 °FMild.2 mph53%30.04 "HgN/A
8:25 PM68 °FPassing clouds.3 mph49%30.01 "HgN/A
7:55 PM70 °FScattered clouds.5 mph46%30.01 "HgN/A
7:25 PM68 °FPartly sunny.7 mph49%30.01 "HgN/A
6:55 PM70 °FMild.8 mph46%30.01 "HgN/A
5:55 PM72 °FScattered clouds.9 mph44%30.01 "HgN/A
4:55 PM73 °FScattered clouds.5 mph38%29.98 "HgN/A
4:25 PM73 °FBroken clouds.6 mph41%29.98 "HgN/A
3:55 PM73 °FScattered clouds.5 mph36%29.98 "HgN/A
3:25 PM72 °FMild.7 mph41%29.98 "HgN/A
2:55 PM72 °FPassing clouds.5 mph41%29.98 "HgN/A
2:25 PM72 °FMild.5 mph41%29.98 "HgN/A
1:55 PM72 °FScattered clouds.3 mph41%29.98 "HgN/A
1:25 PM72 °FScattered clouds.6 mph41%29.98 "HgN/A
12:55 PM70 °FPartly sunny.3 mph40%29.98 "HgN/A
12:25 PM70 °FMild.6 mph46%29.98 "HgN/A
11:55 AM70 °FPassing clouds.5 mph43%29.98 "HgN/A
11:25 AM68 °FMild.5 mph49%30.01 "HgN/A
10:55 AM68 °FMild.2 mph49%30.01 "HgN/A
10:25 AM64 °FPassing clouds.2 mph56%30.01 "HgN/A
Weather by CustomWeather, © 2015

See weather overviewHow to use our weather pages